Location: *
(51.8167°N, 12.5000°E)
Time: 08:46:48
(UTC+00:00)

COSMOS 2455 - Pass Details

Date: 16 September 2019
Orbit: 900 x 909 km, 67.1° (Epoch: 19 October)

Event Time Altitude Azimuth Distance (km) Brightness Sun altitude
Rises 18:04:37 0° 321° (NW) 3,551 6.9 -7.1°
Reaches altitude 10° 18:07:09 10° 318° (NW) 2,605 6.2 -7.5°
Maximum altitude 18:13:07 65° 239° (WSW) 996 3.3 -8.4°
Drops below altitude 10° 18:19:03 10° 158° (SSE) 2,585 4.9 -9.3°
Sets 18:21:33 0° 156° (SSE) 3,522 5.5 -9.7°
